Regional Weather Roundup
Issued by NWS Goodland, KS

Home | Current Version | Previous Version | Text Only | Print | Product List | Glossary Off
Versions: 1 2 3 4 5 6 7 8 9 10 11 12 13 14 15 16 17 18 19 20 21 22 23 24 25 26 27 28 29 30 31 32 33 34 35 36 37 38 39 40 41 42 43 44 45 46 47 48 49 50

000
ASUS43 KGLD 181508
RWRGLD

GOODLAND FORECAST AREA HOURLY WEATHER ROUNDUP
NATIONAL WEATHER SERVICE GOODLAND KS
800 AM MST THU DEC 18 2014

...OFFICIAL OBSERVATIONS...

CITY           SKY/WX    TMP DP  RH WIND       PRES   REMARKS
GOODLAND KS    FOG       21  20  96 SW7       30.08S VSB 1/2
HILL CITY KS   CLOUDY    26  24  92 CALM      30.17R FOG
IMPERIAL NEB   CLOUDY    25  23  92 CALM      30.09R FOG
MCCOOK NEB     CLOUDY    24  22  91 S3        30.13R FOG
AKRON CO       PTCLDY    21  19  92 W12       30.03R FOG     WCI   9
BURLINGTON CO  PTCLDY    15  11  83 W8        30.05R
LIMON CO       PTCLDY    18  15  88 CALM      30.04R
$$

...UNOFFICIAL OBSERVATIONS...

CITY           SKY/WX    TMP DP  RH WIND       PRES   REMARKS
GOVE KS          N/A     28  32 100 MISG        N/A
SHARON SPRINGS   N/A     27  26  96 CALM        N/A
TRIBUNE KS     CLOUDY    30  30 100 S5        30.12
KIT CARSON CO    N/A     18  16  91 MISG        N/A
YUMA CO          N/A     10   6  85 CALM        N/A
$$



USA.gov is the U.S. government's official web portal to all federal, state and local government web resources and services.